Time,TemperatureF,DewpointF,PressureIn,WindDirection,WindDirectionDegrees,WindSpeedMPH,WindSpeedGustMPH,Humidity,HourlyPrecipIn,Conditions,Clouds,dailyrainin,SoftwareType,DateUTC
2013-07-13 00:01:00,71.1,60.7,30.16,ESE,112,0.5,0.5,69,-99.99,,,-99.99,tws,2013-07-13 04:01:00,
2013-07-13 00:02:00,71.4,60.7,30.16,NNE,22,0.0,0.0,68,-99.99,,,-99.99,tws,2013-07-13 04:02:00,
2013-07-13 00:03:00,71.1,61.3,30.16,ENE,67,0.0,0.0,70,-99.99,,,-99.99,tws,2013-07-13 04:03:00,
2013-07-13 00:05:00,71.2,60.9,30.16,NE,45,0.0,0.0,69,-99.99,,,-99.99,tws,2013-07-13 04:05:00,
2013-07-13 00:07:00,70.8,61.2,30.16,NE,45,1.7,1.7,71,-99.99,,,-99.99,tws,2013-07-13 04:07:00,
2013-07-13 00:12:00,70.6,60.6,30.16,NNW,337,0.9,0.9,70,-99.99,,,-99.99,tws,2013-07-13 04:12:00,
2013-07-13 00:17:00,71.1,60.3,30.16,ENE,67,0.0,0.0,68,-99.99,,,-99.99,tws,2013-07-13 04:17:00,
2013-07-13 00:22:00,70.6,60.7,30.16,NNE,22,0.0,0.0,70,-99.99,,,-99.99,tws,2013-07-13 04:22:00,
2013-07-13 00:27:00,70.8,60.4,30.16,NE,45,1.2,1.2,69,-99.99,,,-99.99,tws,2013-07-13 04:27:00,
2013-07-13 00:32:00,70.7,60.1,30.16,North,360,0.1,0.1,68,-99.99,,,-99.99,tws,2013-07-13 04:32:00,
2013-07-13 00:37:00,69.7,60.5,30.16,ENE,67,0.0,0.0,72,-99.99,,,-99.99,tws,2013-07-13 04:37:00,
2013-07-13 00:42:00,70.3,60.6,30.16,North,0,0.3,0.3,71,-99.99,,,-99.99,tws,2013-07-13 04:42:00,
2013-07-13 00:47:00,70.2,60.5,30.16,East,90,0.0,0.0,70,-99.99,,,-99.99,tws,2013-07-13 04:47:00,
2013-07-13 00:52:00,70.2,60.5,30.17,North,0,0.0,0.0,70,-99.99,,,-99.99,tws,2013-07-13 04:52:00,
2013-07-13 00:57:00,69.3,59.5,30.16,North,360,0.0,0.0,70,-99.99,,,-99.99,tws,2013-07-13 04:57:00,
2013-07-13 01:02:00,70.4,59.9,30.17,NNW,337,0.0,0.0,69,-99.99,,,-99.99,tws,2013-07-13 05:02:00,
2013-07-13 01:07:00,70.4,59.9,30.17,North,0,1.2,1.2,69,-99.99,,,-99.99,tws,2013-07-13 05:07:00,
2013-07-13 01:12:00,69.7,60.3,30.16,West,270,0.0,0.0,71,-99.99,,,-99.99,tws,2013-07-13 05:12:00,
2013-07-13 01:17:00,69.0,59.7,30.17,WNW,292,0.2,0.2,71,-99.99,,,-99.99,tws,2013-07-13 05:17:00,
2013-07-13 01:22:00,69.7,62.2,30.18,West,270,0.0,0.0,76,-99.99,,,-99.99,tws,2013-07-13 05:22:00,
2013-07-13 01:27:00,69.5,62.4,30.18,SSW,202,0.0,0.0,77,-99.99,,,-99.99,tws,2013-07-13 05:27:00,
2013-07-13 01:32:00,68.5,62.7,30.18,South,180,0.0,0.0,81,-99.99,,,-99.99,tws,2013-07-13 05:32:00,
2013-07-13 01:37:00,68.4,62.3,30.18,South,180,6.0,6.0,80,-99.99,,,-99.99,tws,2013-07-13 05:37:00,
2013-07-13 01:42:00,67.7,61.3,30.18,SSE,157,1.4,1.4,79,-99.99,,,-99.99,tws,2013-07-13 05:42:00,
2013-07-13 01:47:00,66.7,60.9,30.18,West,270,0.0,0.0,81,-99.99,,,-99.99,tws,2013-07-13 05:47:00,
2013-07-13 01:52:00,65.8,60.0,30.18,NNW,337,0.0,0.0,81,-99.99,,,-99.99,tws,2013-07-13 05:52:00,
2013-07-13 01:57:00,65.9,61.8,30.18,NNW,337,0.0,0.0,86,-99.99,,,-99.99,tws,2013-07-13 05:57:00,
2013-07-13 02:03:00,64.3,60.8,30.17,NNW,337,8.5,8.5,88,-99.99,,,-99.99,tws,2013-07-13 06:03:00,
2013-07-13 02:08:00,64.5,61.0,30.17,NE,45,0.4,0.4,88,-99.99,,,-99.99,tws,2013-07-13 06:08:00,
2013-07-13 02:14:00,63.9,60.6,30.17,NW,315,3.7,3.7,89,-99.99,,,-99.99,tws,2013-07-13 06:14:00,
2013-07-13 02:19:00,64.0,60.6,30.17,North,360,3.5,3.5,88,-99.99,,,-99.99,tws,2013-07-13 06:19:00,
2013-07-13 02:24:00,63.6,60.2,30.18,NNE,22,3.8,3.8,88,-99.99,,,-99.99,tws,2013-07-13 06:24:00,
2013-07-13 02:29:00,63.5,60.2,30.18,NNW,337,8.0,8.0,88,-99.99,,,-99.99,tws,2013-07-13 06:29:00,
2013-07-13 02:34:00,63.6,60.2,30.17,NNW,337,3.9,3.9,88,-99.99,,,-99.99,tws,2013-07-13 06:34:00,
2013-07-13 02:39:00,63.4,59.5,30.18,NW,315,4.1,4.1,86,-99.99,,,-99.99,tws,2013-07-13 06:39:00,
2013-07-13 02:44:00,63.3,59.9,30.18,WNW,292,4.0,4.0,88,-99.99,,,-99.99,tws,2013-07-13 06:44:00,
2013-07-13 02:49:00,63.4,59.8,30.18,NNW,337,6.2,6.2,87,-99.99,,,-99.99,tws,2013-07-13 06:49:00,
2013-07-13 02:54:00,63.6,60.2,30.18,NNW,337,2.2,2.2,88,-99.99,,,-99.99,tws,2013-07-13 06:54:00,
2013-07-13 02:59:00,64.0,60.8,30.18,NW,315,0.6,0.6,89,-99.99,,,-99.99,tws,2013-07-13 06:59:00,
2013-07-13 03:04:00,64.2,60.9,30.18,WNW,292,2.0,2.0,88,-99.99,,,-99.99,tws,2013-07-13 07:04:00,
2013-07-13 03:09:00,63.9,60.6,30.18,NNW,337,0.8,0.8,89,-99.99,,,-99.99,tws,2013-07-13 07:09:00,
2013-07-13 03:14:00,63.6,60.4,30.18,North,0,1.0,1.0,89,-99.99,,,-99.99,tws,2013-07-13 07:14:00,
2013-07-13 03:19:00,63.9,60.5,30.18,NNE,22,1.3,1.3,88,-99.99,,,-99.99,tws,2013-07-13 07:19:00,
2013-07-13 03:24:00,64.0,60.8,30.18,NE,45,2.8,2.8,89,-99.99,,,-99.99,tws,2013-07-13 07:24:00,
2013-07-13 03:29:00,63.9,60.5,30.17,ESE,112,2.4,2.4,88,-99.99,,,-99.99,tws,2013-07-13 07:29:00,
2013-07-13 03:34:00,64.0,60.9,30.17,NW,315,1.2,1.2,89,-99.99,,,-99.99,tws,2013-07-13 07:34:00,
2013-07-13 03:39:00,64.2,61.1,30.18,WNW,292,0.5,0.5,89,-99.99,,,-99.99,tws,2013-07-13 07:39:00,
2013-07-13 03:44:00,63.7,60.8,30.18,NNE,22,7.7,7.7,89,-99.99,,,-99.99,tws,2013-07-13 07:44:00,
2013-07-13 03:49:00,63.6,60.6,30.18,West,270,4.3,4.3,89,-99.99,,,-99.99,tws,2013-07-13 07:49:00,
2013-07-13 03:54:00,63.9,61.0,30.18,ENE,67,3.3,3.3,90,-99.99,,,-99.99,tws,2013-07-13 07:54:00,
2013-07-13 03:59:00,63.7,61.0,30.18,North,360,3.9,3.9,90,-99.99,,,-99.99,tws,2013-07-13 07:59:00,
2013-07-13 04:04:00,63.6,60.9,30.17,East,90,5.6,5.6,90,-99.99,,,-99.99,tws,2013-07-13 08:04:00,
2013-07-13 04:09:00,63.7,61.2,30.17,ESE,112,4.7,4.7,91,-99.99,,,-99.99,tws,2013-07-13 08:09:00,
2013-07-13 04:14:00,64.0,61.4,30.18,North,360,6.7,6.7,91,-99.99,,,-99.99,tws,2013-07-13 08:14:00,
2013-07-13 04:19:00,64.1,61.5,30.18,WNW,292,0.5,0.5,91,-99.99,,,-99.99,tws,2013-07-13 08:19:00,
2013-07-13 04:24:00,63.9,61.4,30.18,NNE,22,5.7,5.7,91,-99.99,,,-99.99,tws,2013-07-13 08:24:00,
2013-07-13 04:29:00,63.7,61.0,30.18,NE,45,1.7,1.7,90,-99.99,,,-99.99,tws,2013-07-13 08:29:00,
2013-07-13 04:34:00,63.9,60.9,30.19,NNE,22,3.6,3.6,89,-99.99,,,-99.99,tws,2013-07-13 08:34:00,
2013-07-13 04:39:00,64.0,61.1,30.19,NNE,22,1.8,1.8,90,-99.99,,,-99.99,tws,2013-07-13 08:39:00,
2013-07-13 04:44:00,63.9,60.7,30.20,East,90,0.2,0.2,89,-99.99,,,-99.99,tws,2013-07-13 08:44:00,
2013-07-13 04:49:00,64.1,61.6,30.20,North,0,0.4,0.4,91,-99.99,,,-99.99,tws,2013-07-13 08:49:00,
2013-07-13 04:54:00,63.9,61.4,30.20,ENE,67,0.7,0.7,91,-99.99,,,-99.99,tws,2013-07-13 08:54:00,
2013-07-13 04:59:00,63.7,61.6,30.20,North,0,1.2,1.2,92,-99.99,,,-99.99,tws,2013-07-13 08:59:00,
2013-07-13 05:04:00,63.3,61.2,30.20,East,90,2.5,2.5,92,-99.99,,,-99.99,tws,2013-07-13 09:04:00,
2013-07-13 05:09:00,63.3,61.0,30.20,NE,45,5.5,5.5,92,-99.99,,,-99.99,tws,2013-07-13 09:09:00,
2013-07-13 05:14:00,63.7,61.6,30.20,NNE,22,5.5,5.5,92,-99.99,,,-99.99,tws,2013-07-13 09:14:00,
2013-07-13 05:19:00,63.6,61.6,30.20,NNE,22,3.9,3.9,93,-99.99,,,-99.99,tws,2013-07-13 09:19:00,
2013-07-13 05:24:00,63.3,61.3,30.20,NNE,22,7.7,7.7,93,-99.99,,,-99.99,tws,2013-07-13 09:24:00,
2013-07-13 05:29:00,63.6,61.7,30.20,West,270,8.8,8.8,93,-99.99,,,-99.99,tws,2013-07-13 09:29:00,
2013-07-13 05:34:00,63.6,61.8,30.20,ENE,67,3.2,3.2,93,-99.99,,,-99.99,tws,2013-07-13 09:34:00,
2013-07-13 05:39:00,63.9,62.0,30.20,ENE,67,1.2,1.2,93,-99.99,,,-99.99,tws,2013-07-13 09:39:00,
2013-07-13 05:44:00,63.6,61.8,30.21,NE,45,4.3,4.3,93,-99.99,,,-99.99,tws,2013-07-13 09:44:00,
2013-07-13 05:49:00,63.6,61.8,30.21,NNE,22,0.0,0.0,93,-99.99,,,-99.99,tws,2013-07-13 09:49:00,
2013-07-13 05:54:00,63.5,61.5,30.21,NNE,22,4.0,4.0,93,-99.99,,,-99.99,tws,2013-07-13 09:54:00,
2013-07-13 05:59:00,63.4,61.6,30.21,NNE,22,4.3,4.3,93,-99.99,,,-99.99,tws,2013-07-13 09:59:00,
2013-07-13 06:04:00,63.7,62.0,30.21,ENE,67,1.4,1.4,93,-99.99,,,-99.99,tws,2013-07-13 10:04:00,
2013-07-13 06:09:00,63.4,61.4,30.22,NE,45,5.8,5.8,93,-99.99,,,-99.99,tws,2013-07-13 10:09:00,
2013-07-13 06:15:00,63.6,61.9,30.22,North,360,2.8,2.8,93,-99.99,,,-99.99,tws,2013-07-13 10:15:00,
2013-07-13 06:21:00,63.7,62.0,30.22,NNE,22,0.7,0.7,93,-99.99,,,-99.99,tws,2013-07-13 10:21:00,
2013-07-13 06:26:00,63.7,61.9,30.22,North,360,7.9,7.9,93,-99.99,,,-99.99,tws,2013-07-13 10:26:00,
2013-07-13 06:31:00,63.7,61.7,30.22,North,360,4.5,4.5,93,-99.99,,,-99.99,tws,2013-07-13 10:31:00,
2013-07-13 06:36:00,64.1,62.1,30.22,NW,315,2.3,2.3,93,-99.99,,,-99.99,tws,2013-07-13 10:36:00,
2013-07-13 06:41:00,64.0,62.2,30.23,NNW,337,0.1,0.1,93,-99.99,,,-99.99,tws,2013-07-13 10:41:00,
2013-07-13 06:46:00,63.9,62.0,30.23,ENE,67,0.2,0.2,93,-99.99,,,-99.99,tws,2013-07-13 10:46:00,
2013-07-13 06:51:00,64.1,61.8,30.23,WNW,292,0.0,0.0,92,-99.99,,,-99.99,tws,2013-07-13 10:51:00,
2013-07-13 06:56:00,64.2,62.0,30.23,ENE,67,0.0,0.0,92,-99.99,,,-99.99,tws,2013-07-13 10:56:00,
2013-07-13 07:02:00,64.4,62.3,30.23,NE,45,0.0,0.0,92,-99.99,,,-99.99,tws,2013-07-13 11:02:00,
2013-07-13 07:07:00,64.1,62.5,30.24,NNE,22,6.3,6.3,94,-99.99,,,-99.99,tws,2013-07-13 11:07:00,
2013-07-13 07:12:00,64.4,62.9,30.23,NNE,22,3.9,3.9,94,-99.99,,,-99.99,tws,2013-07-13 11:12:00,
2013-07-13 07:17:00,64.1,62.5,30.24,ENE,67,0.0,0.0,94,-99.99,,,-99.99,tws,2013-07-13 11:17:00,
2013-07-13 07:22:00,63.5,62.3,30.24,NE,45,3.3,3.3,95,-99.99,,,-99.99,tws,2013-07-13 11:22:00,
2013-07-13 07:27:00,63.2,61.5,30.24,NE,45,3.7,3.7,94,-99.99,,,-99.99,tws,2013-07-13 11:27:00,
2013-07-13 07:32:00,63.6,62.2,30.25,NE,45,4.8,4.8,95,-99.99,,,-99.99,tws,2013-07-13 11:32:00,
2013-07-13 07:37:00,63.6,62.2,30.25,NNE,22,4.4,4.4,94,-99.99,,,-99.99,tws,2013-07-13 11:37:00,
2013-07-13 07:42:00,63.3,61.8,30.25,North,0,6.4,6.4,94,-99.99,,,-99.99,tws,2013-07-13 11:42:00,
2013-07-13 07:47:00,64.1,62.6,30.25,East,90,0.5,0.5,94,-99.99,,,-99.99,tws,2013-07-13 11:47:00,
2013-07-13 07:52:00,64.4,62.8,30.25,WNW,292,2.2,2.2,94,-99.99,,,-99.99,tws,2013-07-13 11:52:00,
2013-07-13 07:57:00,64.2,62.8,30.25,NE,45,4.4,4.4,95,-99.99,,,-99.99,tws,2013-07-13 11:57:00,
2013-07-13 08:02:00,-999.8,-99.9,30.26,NNE,22,2.2,2.2,93,-99.99,,,-99.99,tws,2013-07-13 12:02:00,
2013-07-13 08:07:00,64.4,62.4,30.25,NE,45,6.6,6.6,93,-99.99,,,-99.99,tws,2013-07-13 12:07:00,
2013-07-13 08:12:00,64.5,62.9,30.26,NW,315,1.0,1.0,94,-99.99,,,-99.99,tws,2013-07-13 12:12:00,
2013-07-13 08:18:00,64.8,62.8,30.26,ENE,67,2.2,2.2,93,-99.99,,,-99.99,tws,2013-07-13 12:18:00,
2013-07-13 08:23:00,64.5,62.6,30.26,NE,45,1.9,1.9,93,-99.99,,,-99.99,tws,2013-07-13 12:23:00,
2013-07-13 08:28:00,65.3,63.0,30.26,North,360,1.5,1.5,92,-99.99,,,-99.99,tws,2013-07-13 12:28:00,
2013-07-13 08:33:00,65.4,63.1,30.26,NNW,337,2.5,2.5,92,-99.99,,,-99.99,tws,2013-07-13 12:33:00,
2013-07-13 08:39:00,66.2,63.5,30.26,NE,45,0.4,0.4,91,-99.99,,,-99.99,tws,2013-07-13 12:39:00,
2013-07-13 08:44:00,66.2,63.5,30.26,NNE,22,1.4,1.4,90,-99.99,,,-99.99,tws,2013-07-13 12:44:00,
2013-07-13 08:49:00,66.6,63.6,30.26,East,90,2.0,2.0,90,-99.99,,,-99.99,tws,2013-07-13 12:49:00,
2013-07-13 08:54:00,65.9,63.2,30.25,NE,45,1.6,1.6,90,-99.99,,,-99.99,tws,2013-07-13 12:54:00,
2013-07-13 08:59:00,66.8,63.7,30.26,NNE,22,3.5,3.5,89,-99.99,,,-99.99,tws,2013-07-13 12:59:00,
2013-07-13 09:05:00,67.5,64.1,30.26,NE,45,0.1,0.1,88,-99.99,,,-99.99,tws,2013-07-13 13:05:00,
2013-07-13 09:10:00,67.4,63.9,30.26,ENE,67,1.4,1.4,88,-99.99,,,-99.99,tws,2013-07-13 13:10:00,
2013-07-13 09:15:00,68.8,65.2,30.26,NE,45,0.8,0.8,88,-99.99,,,-99.99,tws,2013-07-13 13:15:00,
2013-07-13 09:20:00,66.9,63.6,30.26,NNW,337,6.3,6.3,88,-99.99,,,-99.99,tws,2013-07-13 13:20:00,
2013-07-13 09:25:00,67.1,63.4,30.26,NW,315,4.1,4.1,87,-99.99,,,-99.99,tws,2013-07-13 13:25:00,
2013-07-13 09:30:00,69.2,65.0,30.26,NNE,22,4.6,4.6,86,-99.99,,,-99.99,tws,2013-07-13 13:30:00,
2013-07-13 09:35:00,68.6,64.4,30.26,NW,315,1.6,1.6,86,-99.99,,,-99.99,tws,2013-07-13 13:35:00,
2013-07-13 09:40:00,68.7,64.1,30.26,WSW,247,3.0,3.0,85,-99.99,,,-99.99,tws,2013-07-13 13:40:00,
2013-07-13 09:46:00,68.3,64.3,30.27,NNE,22,3.9,3.9,87,-99.99,,,-99.99,tws,2013-07-13 13:46:00,
2013-07-13 09:51:00,68.5,64.3,30.27,NNW,337,3.7,3.7,86,-99.99,,,-99.99,tws,2013-07-13 13:51:00,
2013-07-13 09:56:00,69.6,65.1,30.27,NE,45,1.6,1.6,85,-99.99,,,-99.99,tws,2013-07-13 13:56:00,
2013-07-13 10:02:00,69.5,64.9,30.27,NW,315,4.5,4.5,85,-99.99,,,-99.99,tws,2013-07-13 14:02:00,
2013-07-13 10:07:00,69.5,65.1,30.27,ENE,67,0.4,0.4,85,-99.99,,,-99.99,tws,2013-07-13 14:07:00,
2013-07-13 10:12:00,68.3,64.2,30.27,NNE,22,0.0,0.0,86,-99.99,,,-99.99,tws,2013-07-13 14:12:00,
2013-07-13 10:17:00,67.9,63.9,30.27,East,90,0.1,0.1,86,-99.99,,,-99.99,tws,2013-07-13 14:17:00,
2013-07-13 10:22:00,68.7,64.1,30.27,NE,45,1.0,1.0,84,-99.99,,,-99.99,tws,2013-07-13 14:22:00,
2013-07-13 10:27:00,69.7,65.2,30.27,North,0,0.9,0.9,85,-99.99,,,-99.99,tws,2013-07-13 14:27:00,
2013-07-13 10:32:00,69.2,64.8,30.27,NE,45,3.9,3.9,85,-99.99,,,-99.99,tws,2013-07-13 14:32:00,
2013-07-13 10:37:00,69.3,64.8,30.27,NNE,22,1.0,1.0,85,-99.99,,,-99.99,tws,2013-07-13 14:37:00,
2013-07-13 10:42:00,69.6,65.4,30.27,East,90,0.0,0.0,86,-99.99,,,-99.99,tws,2013-07-13 14:42:00,
2013-07-13 10:47:00,69.8,65.1,30.27,NNE,22,1.8,1.8,84,-99.99,,,-99.99,tws,2013-07-13 14:47:00,
2013-07-13 10:52:00,69.6,65.2,30.27,NNW,337,1.4,1.4,85,-99.99,,,-99.99,tws,2013-07-13 14:52:00,
2013-07-13 10:57:00,70.3,65.4,30.27,NE,45,2.1,2.1,84,-99.99,,,-99.99,tws,2013-07-13 14:57:00,
2013-07-13 11:02:00,68.0,64.6,30.27,North,360,0.1,0.1,88,-99.99,,,-99.99,tws,2013-07-13 15:02:00,
2013-07-13 11:07:00,68.1,65.3,30.27,North,0,0.4,0.4,90,-99.99,,,-99.99,tws,2013-07-13 15:07:00,
2013-07-13 11:12:00,67.4,65.3,30.27,NW,315,0.0,0.0,92,-99.99,,,-99.99,tws,2013-07-13 15:12:00,
2013-07-13 11:17:00,67.2,64.6,30.27,NW,315,4.3,4.3,91,-99.99,,,-99.99,tws,2013-07-13 15:17:00,
2013-07-13 11:22:00,69.7,66.7,30.27,NW,315,1.2,1.2,90,-99.99,,,-99.99,tws,2013-07-13 15:22:00,
2013-07-13 11:27:00,68.5,65.3,30.27,NW,315,2.8,2.8,89,-99.99,,,-99.99,tws,2013-07-13 15:27:00,
2013-07-13 11:33:00,71.0,67.4,30.27,East,90,0.1,0.1,88,-99.99,,,-99.99,tws,2013-07-13 15:33:00,
2013-07-13 11:38:00,71.3,66.8,30.27,NE,45,0.0,0.0,85,-99.99,,,-99.99,tws,2013-07-13 15:38:00,
2013-07-13 11:43:00,71.7,66.8,30.27,NE,45,0.3,0.3,84,-99.99,,,-99.99,tws,2013-07-13 15:43:00,
2013-07-13 11:48:00,71.3,67.5,30.27,WNW,292,0.0,0.0,87,-99.99,,,-99.99,tws,2013-07-13 15:48:00,
2013-07-13 11:54:00,71.1,66.7,30.28,WNW,292,2.3,2.3,85,-99.99,,,-99.99,tws,2013-07-13 15:54:00,
2013-07-13 11:59:00,69.0,65.6,30.28,NNW,337,8.1,8.1,88,-99.99,,,-99.99,tws,2013-07-13 15:59:00,
2013-07-13 12:04:00,69.8,66.2,30.28,North,360,1.0,1.0,88,-99.99,,,-99.99,tws,2013-07-13 16:04:00,
2013-07-13 12:09:00,72.3,66.9,30.28,NNE,22,0.8,0.8,82,-99.99,,,-99.99,tws,2013-07-13 16:09:00,
2013-07-13 12:14:00,74.4,68.1,30.28,NNE,22,1.3,1.3,80,-99.99,,,-99.99,tws,2013-07-13 16:14:00,
2013-07-13 12:19:00,74.1,69.5,30.28,NE,45,0.2,0.2,85,-99.99,,,-99.99,tws,2013-07-13 16:19:00,
2013-07-13 12:24:00,73.0,67.6,30.27,NW,315,0.4,0.4,82,-99.99,,,-99.99,tws,2013-07-13 16:24:00,
2013-07-13 12:29:00,71.4,66.7,30.28,North,360,1.0,1.0,85,-99.99,,,-99.99,tws,2013-07-13 16:29:00,
2013-07-13 12:34:00,71.0,67.1,30.28,NNE,22,0.4,0.4,87,-99.99,,,-99.99,tws,2013-07-13 16:34:00,
2013-07-13 12:40:00,73.2,68.3,30.27,ENE,67,0.0,0.0,84,-99.99,,,-99.99,tws,2013-07-13 16:40:00,
2013-07-13 12:45:00,72.4,67.6,30.27,West,270,0.0,0.0,84,-99.99,,,-99.99,tws,2013-07-13 16:45:00,
2013-07-13 12:50:00,71.4,66.7,30.27,West,270,3.6,3.6,85,-99.99,,,-99.99,tws,2013-07-13 16:50:00,
2013-07-13 12:56:00,73.3,67.8,30.27,West,270,2.1,2.1,82,-99.99,,,-99.99,tws,2013-07-13 16:56:00,
2013-07-13 13:01:00,72.8,67.5,30.27,NW,315,8.2,8.2,83,-99.99,,,-99.99,tws,2013-07-13 17:01:00,
2013-07-13 13:06:00,73.0,68.2,30.27,West,270,2.9,2.9,84,-99.99,,,-99.99,tws,2013-07-13 17:06:00,
2013-07-13 13:11:00,71.5,66.8,30.27,West,270,2.4,2.4,84,-99.99,,,-99.99,tws,2013-07-13 17:11:00,
2013-07-13 13:16:00,72.0,67.9,30.27,NW,315,0.0,0.0,86,-99.99,,,-99.99,tws,2013-07-13 17:16:00,
2013-07-13 13:21:00,72.0,67.7,30.27,NW,315,1.1,1.1,86,-99.99,,,-99.99,tws,2013-07-13 17:21:00,
2013-07-13 13:26:00,72.2,67.5,30.27,West,270,0.0,0.0,85,-99.99,,,-99.99,tws,2013-07-13 17:26:00,
2013-07-13 13:31:00,72.3,68.0,30.27,WNW,292,0.0,0.0,86,-99.99,,,-99.99,tws,2013-07-13 17:31:00,
2013-07-13 13:36:00,72.0,67.9,30.27,NNW,337,2.5,2.5,86,-99.99,,,-99.99,tws,2013-07-13 17:36:00,
2013-07-13 13:41:00,70.5,66.8,30.27,NNW,337,10.6,10.6,88,-99.99,,,-99.99,tws,2013-07-13 17:41:00,
2013-07-13 13:46:00,71.2,67.7,30.27,WNW,292,1.4,1.4,88,-99.99,,,-99.99,tws,2013-07-13 17:46:00,
2013-07-13 13:51:00,72.1,68.1,30.27,NW,315,0.0,0.0,87,-99.99,,,-99.99,tws,2013-07-13 17:51:00,
2013-07-13 13:56:00,72.6,68.5,30.27,NNW,337,1.5,1.5,86,-99.99,,,-99.99,tws,2013-07-13 17:56:00,
2013-07-13 14:02:00,72.4,67.7,30.27,West,270,6.9,6.9,85,-99.99,,,-99.99,tws,2013-07-13 18:02:00,
2013-07-13 14:07:00,73.3,69.3,30.27,North,360,0.4,0.4,87,-99.99,,,-99.99,tws,2013-07-13 18:07:00,
2013-07-13 14:12:00,73.4,68.1,30.27,NNW,337,1.0,1.0,83,-99.99,,,-99.99,tws,2013-07-13 18:12:00,
2013-07-13 14:17:00,73.1,68.1,30.27,WNW,292,1.3,1.3,84,-99.99,,,-99.99,tws,2013-07-13 18:17:00,
2013-07-13 14:22:00,72.8,68.0,30.27,NNW,337,9.5,9.5,84,-99.99,,,-99.99,tws,2013-07-13 18:22:00,
2013-07-13 14:27:00,74.4,68.5,30.27,NNW,337,3.5,3.5,81,-99.99,,,-99.99,tws,2013-07-13 18:27:00,
2013-07-13 14:32:00,72.5,68.1,30.27,NNW,337,6.4,6.4,85,-99.99,,,-99.99,tws,2013-07-13 18:32:00,
2013-07-13 14:37:00,73.5,68.8,30.27,NW,315,0.0,0.0,84,-99.99,,,-99.99,tws,2013-07-13 18:37:00,
2013-07-13 14:42:00,73.2,68.7,30.27,NW,315,4.2,4.2,85,-99.99,,,-99.99,tws,2013-07-13 18:42:00,
2013-07-13 14:47:00,72.6,68.2,30.27,North,360,1.7,1.7,85,-99.99,,,-99.99,tws,2013-07-13 18:47:00,
2013-07-13 14:52:00,74.2,68.8,30.27,NNW,337,2.7,2.7,83,-99.99,,,-99.99,tws,2013-07-13 18:52:00,
2013-07-13 14:57:00,73.5,69.0,30.28,NW,315,2.9,2.9,85,-99.99,,,-99.99,tws,2013-07-13 18:57:00,
2013-07-13 15:02:00,73.4,69.0,30.27,NNE,22,3.8,3.8,85,-99.99,,,-99.99,tws,2013-07-13 19:02:00,
2013-07-13 15:07:00,72.5,68.4,30.27,NW,315,7.0,7.0,86,-99.99,,,-99.99,tws,2013-07-13 19:07:00,
2013-07-13 15:12:00,72.9,68.8,30.27,NNW,337,1.2,1.2,86,-99.99,,,-99.99,tws,2013-07-13 19:12:00,
2013-07-13 15:17:00,73.0,69.0,30.27,NNW,337,1.7,1.7,87,-99.99,,,-99.99,tws,2013-07-13 19:17:00,
2013-07-13 15:23:00,71.9,68.4,30.27,NW,315,9.6,9.6,88,-99.99,,,-99.99,tws,2013-07-13 19:23:00,
2013-07-13 15:28:00,72.9,69.3,30.27,SSW,202,0.0,0.0,88,-99.99,,,-99.99,tws,2013-07-13 19:28:00,
2013-07-13 15:33:00,72.1,68.7,30.27,NNW,337,5.5,5.5,89,-99.99,,,-99.99,tws,2013-07-13 19:33:00,
2013-07-13 15:38:00,73.8,69.7,30.27,NE,45,1.4,1.4,86,-99.99,,,-99.99,tws,2013-07-13 19:38:00,
2013-07-13 15:44:00,74.4,70.2,30.27,NW,315,0.0,0.0,86,-99.99,,,-99.99,tws,2013-07-13 19:44:00,
2013-07-13 15:49:00,73.2,69.4,30.27,NNE,22,0.0,0.0,87,-99.99,,,-99.99,tws,2013-07-13 19:49:00,
2013-07-13 15:54:00,73.5,69.1,30.27,NNW,337,6.6,6.6,85,-99.99,,,-99.99,tws,2013-07-13 19:54:00,
2013-07-13 15:59:00,72.6,69.1,30.27,WNW,292,5.1,5.1,88,-99.99,,,-99.99,tws,2013-07-13 19:59:00,
2013-07-13 16:04:00,74.7,70.6,30.27,NNW,337,1.3,1.3,86,-99.99,,,-99.99,tws,2013-07-13 20:04:00,
2013-07-13 16:09:00,75.2,70.4,30.27,NE,45,0.1,0.1,84,-99.99,,,-99.99,tws,2013-07-13 20:09:00,
2013-07-13 16:15:00,74.8,70.4,30.27,NNW,337,1.7,1.7,86,-99.99,,,-99.99,tws,2013-07-13 20:15:00,
2013-07-13 16:20:00,74.8,70.5,30.27,WNW,292,4.8,4.8,86,-99.99,,,-99.99,tws,2013-07-13 20:20:00,
2013-07-13 16:25:00,74.3,70.2,30.27,NW,315,0.0,0.0,86,-99.99,,,-99.99,tws,2013-07-13 20:25:00,
2013-07-13 16:30:00,76.6,71.3,-99.98,East,90,0.0,0.0,83,-99.99,,,-99.99,tws,2013-07-13 20:30:00,
2013-07-13 16:35:00,75.3,71.1,30.26,NE,45,0.0,0.0,86,-99.99,,,-99.99,tws,2013-07-13 20:35:00,
2013-07-13 16:41:00,74.0,69.7,30.26,WNW,292,0.0,0.0,86,-99.99,,,-99.99,tws,2013-07-13 20:41:00,
2013-07-13 16:46:00,76.4,71.3,30.26,NNW,337,0.4,0.4,84,-99.99,,,-99.99,tws,2013-07-13 20:46:00,
2013-07-13 16:51:00,77.6,70.9,30.26,SSW,202,0.0,0.0,79,-99.99,,,-99.99,tws,2013-07-13 20:51:00,
2013-07-13 16:56:00,81.1,72.2,30.25,SW,225,0.1,0.1,73,-99.99,,,-99.99,tws,2013-07-13 20:56:00,
2013-07-13 17:01:00,83.4,74.2,30.25,East,90,0.0,0.0,73,-99.99,,,-99.99,tws,2013-07-13 21:01:00,
2013-07-13 17:06:00,89.4,76.2,30.25,SE,135,0.4,0.4,64,-99.99,,,-99.99,tws,2013-07-13 21:06:00,
2013-07-13 17:11:00,85.6,76.0,30.25,NW,315,0.0,0.0,72,-99.99,,,-99.99,tws,2013-07-13 21:11:00,
2013-07-13 17:16:00,77.3,70.6,30.25,West,270,3.1,3.1,79,-99.99,,,-99.99,tws,2013-07-13 21:16:00,
2013-07-13 17:21:00,80.0,72.7,30.25,SE,135,1.0,1.0,78,-99.99,,,-99.99,tws,2013-07-13 21:21:00,
2013-07-13 17:26:00,79.7,72.9,30.25,WNW,292,0.0,0.0,79,-99.99,,,-99.99,tws,2013-07-13 21:26:00,
2013-07-13 17:31:00,76.0,71.2,30.25,West,270,1.8,1.8,84,-99.99,,,-99.99,tws,2013-07-13 21:31:00,
2013-07-13 17:37:00,77.1,72.0,30.26,West,270,0.1,0.1,83,-99.99,,,-99.99,tws,2013-07-13 21:37:00,
2013-07-13 17:43:00,75.5,70.5,30.25,WSW,247,5.4,5.4,84,-99.99,,,-99.99,tws,2013-07-13 21:43:00,
2013-07-13 17:48:00,75.0,71.0,30.26,WNW,292,1.2,1.2,87,-99.99,,,-99.99,tws,2013-07-13 21:48:00,
2013-07-13 17:53:00,74.6,70.5,30.26,West,270,6.5,6.5,86,-99.99,,,-99.99,tws,2013-07-13 21:53:00,
2013-07-13 17:58:00,74.3,70.1,30.26,WNW,292,6.1,6.1,86,-99.99,,,-99.99,tws,2013-07-13 21:58:00,
2013-07-13 18:03:00,75.6,71.0,30.26,WSW,247,1.9,1.9,85,-99.99,,,-99.99,tws,2013-07-13 22:03:00,
2013-07-13 18:08:00,74.7,70.2,30.26,West,270,2.3,2.3,85,-99.99,,,-99.99,tws,2013-07-13 22:08:00,
2013-07-13 18:13:00,74.8,70.4,30.26,West,270,6.4,6.4,86,-99.99,,,-99.99,tws,2013-07-13 22:13:00,
2013-07-13 18:18:00,75.3,70.7,30.26,WSW,247,5.8,5.8,85,-99.99,,,-99.99,tws,2013-07-13 22:18:00,
2013-07-13 18:23:00,75.5,70.7,30.26,WSW,247,3.1,3.1,85,-99.99,,,-99.99,tws,2013-07-13 22:23:00,
2013-07-13 18:28:00,75.5,71.1,30.26,WSW,247,2.8,2.8,86,-99.99,,,-99.99,tws,2013-07-13 22:28:00,
2013-07-13 18:33:00,75.2,71.1,30.26,WNW,292,4.6,4.6,86,-99.99,,,-99.99,tws,2013-07-13 22:33:00,
2013-07-13 18:38:00,74.2,70.6,30.26,WNW,292,7.6,7.6,88,-99.99,,,-99.99,tws,2013-07-13 22:38:00,
2013-07-13 18:43:00,75.2,71.1,30.26,West,270,4.0,4.0,86,-99.99,,,-99.99,tws,2013-07-13 22:43:00,
2013-07-13 18:48:00,75.1,71.1,30.26,West,270,0.0,0.0,87,-99.99,,,-99.99,tws,2013-07-13 22:48:00,
2013-07-13 18:53:00,75.2,71.2,30.27,WNW,292,1.4,1.4,87,-99.99,,,-99.99,tws,2013-07-13 22:53:00,
2013-07-13 18:58:00,75.6,71.5,30.26,WNW,292,0.0,0.0,87,-99.99,,,-99.99,tws,2013-07-13 22:58:00,
2013-07-13 19:03:00,75.0,70.8,30.27,West,270,1.4,1.4,86,-99.99,,,-99.99,tws,2013-07-13 23:03:00,
2013-07-13 19:08:00,75.9,71.4,30.27,SSW,202,0.0,0.0,85,-99.99,,,-99.99,tws,2013-07-13 23:08:00,
2013-07-13 19:13:00,74.8,71.1,30.27,WSW,247,0.2,0.2,88,-99.99,,,-99.99,tws,2013-07-13 23:13:00,
2013-07-13 19:18:00,74.8,71.0,30.27,SW,225,0.7,0.7,87,-99.99,,,-99.99,tws,2013-07-13 23:18:00,
2013-07-13 19:23:00,74.9,71.3,30.27,WSW,247,0.0,0.0,88,-99.99,,,-99.99,tws,2013-07-13 23:23:00,
2013-07-13 19:28:00,74.6,71.2,30.27,West,270,0.0,0.0,89,-99.99,,,-99.99,tws,2013-07-13 23:28:00,
2013-07-13 19:33:00,74.6,71.3,30.27,West,270,0.0,0.0,89,-99.99,,,-99.99,tws,2013-07-13 23:33:00,
2013-07-13 19:38:00,75.7,71.7,30.27,West,270,0.0,0.0,87,-99.99,,,-99.99,tws,2013-07-13 23:38:00,
2013-07-13 19:43:00,74.9,71.7,30.27,ENE,67,0.0,0.0,89,-99.99,,,-99.99,tws,2013-07-13 23:43:00,
2013-07-13 19:48:00,75.5,71.6,30.27,ESE,112,0.0,0.0,87,-99.99,,,-99.99,tws,2013-07-13 23:48:00,
2013-07-13 19:53:00,75.5,71.7,30.27,ESE,112,0.0,0.0,88,-99.99,,,-99.99,tws,2013-07-13 23:53:00,
2013-07-13 19:58:00,74.6,71.8,30.27,ESE,112,0.0,0.0,91,-99.99,,,-99.99,tws,2013-07-13 23:58:00,
2013-07-13 20:03:00,74.3,71.6,30.27,ESE,112,0.0,0.0,91,-99.99,,,-99.99,tws,2013-07-14 00:03:00,
2013-07-13 20:08:00,74.4,71.6,30.28,ESE,112,0.0,0.0,90,-99.99,,,-99.99,tws,2013-07-14 00:08:00,
2013-07-13 20:13:00,74.3,71.3,30.27,ESE,112,0.0,0.0,90,-99.99,,,-99.99,tws,2013-07-14 00:13:00,
2013-07-13 20:18:00,74.3,71.7,30.27,ESE,112,0.0,0.0,91,-99.99,,,-99.99,tws,2013-07-14 00:18:00,
2013-07-13 20:23:00,74.0,71.6,30.27,NNE,22,0.0,0.0,92,-99.99,,,-99.99,tws,2013-07-14 00:23:00,
2013-07-13 20:28:00,75.0,72.2,30.27,NE,45,0.0,0.0,90,-99.99,,,-99.99,tws,2013-07-14 00:28:00,
2013-07-13 20:33:00,74.9,72.0,30.27,ESE,112,0.0,0.0,90,-99.99,,,-99.99,tws,2013-07-14 00:33:00,
2013-07-13 20:39:00,74.3,72.0,30.27,East,90,0.0,0.0,92,-99.99,,,-99.99,tws,2013-07-14 00:39:00,
2013-07-13 20:44:00,74.4,71.8,30.27,ESE,112,0.0,0.0,91,-99.99,,,-99.99,tws,2013-07-14 00:44:00,
2013-07-13 20:49:00,74.3,71.7,30.27,East,90,0.0,0.0,91,-99.99,,,-99.99,tws,2013-07-14 00:49:00,
2013-07-13 20:54:00,74.2,71.8,30.27,SE,135,0.0,0.0,92,-99.99,,,-99.99,tws,2013-07-14 00:54:00,
2013-07-13 20:59:00,74.2,71.9,30.27,SE,135,0.0,0.0,92,-99.99,,,-99.99,tws,2013-07-14 00:59:00,
2013-07-13 21:04:00,74.2,71.3,30.27,SSE,157,0.0,0.0,90,-99.99,,,-99.99,tws,2013-07-14 01:04:00,
2013-07-13 21:09:00,74.1,71.8,30.27,South,180,0.0,0.0,92,-99.99,,,-99.99,tws,2013-07-14 01:09:00,
2013-07-13 21:14:00,73.4,71.5,30.28,South,180,0.0,0.0,93,-99.99,,,-99.99,tws,2013-07-14 01:14:00,
2013-07-13 21:19:00,73.1,71.2,30.28,South,180,0.0,0.0,93,-99.99,,,-99.99,tws,2013-07-14 01:19:00,
2013-07-13 21:24:00,73.7,71.7,30.28,South,180,0.0,0.0,93,-99.99,,,-99.99,tws,2013-07-14 01:24:00,
2013-07-13 21:29:00,73.5,71.6,30.29,South,180,0.0,0.0,93,-99.99,,,-99.99,tws,2013-07-14 01:29:00,
2013-07-13 21:34:00,73.4,71.6,30.29,South,180,0.0,0.0,93,-99.99,,,-99.99,tws,2013-07-14 01:34:00,
2013-07-13 21:39:00,73.8,71.8,30.29,South,180,0.0,0.0,93,-99.99,,,-99.99,tws,2013-07-14 01:39:00,
2013-07-13 21:44:00,74.0,71.9,30.29,South,180,0.0,0.0,93,-99.99,,,-99.99,tws,2013-07-14 01:44:00,
2013-07-13 21:49:00,73.9,71.9,30.29,South,180,0.0,0.0,93,-99.99,,,-99.99,tws,2013-07-14 01:49:00,
2013-07-13 21:54:00,74.4,72.3,30.29,South,180,0.0,0.0,92,-99.99,,,-99.99,tws,2013-07-14 01:54:00,
2013-07-13 21:59:00,72.9,71.5,30.29,WSW,247,0.0,0.0,95,-99.99,,,-99.99,tws,2013-07-14 01:59:00,
2013-07-13 22:04:00,73.0,71.4,30.29,WSW,247,0.0,0.0,94,-99.99,,,-99.99,tws,2013-07-14 02:04:00,
2013-07-13 22:09:00,73.8,71.8,30.29,WSW,247,0.0,0.0,93,-99.99,,,-99.99,tws,2013-07-14 02:09:00,
2013-07-13 22:14:00,73.8,72.1,30.29,WSW,247,0.0,0.0,94,-99.99,,,-99.99,tws,2013-07-14 02:14:00,
2013-07-13 22:19:00,73.3,71.8,30.29,SE,135,0.0,0.0,95,-99.99,,,-99.99,tws,2013-07-14 02:19:00,
2013-07-13 22:24:00,73.3,72.1,30.29,East,90,0.0,0.0,95,-99.99,,,-99.99,tws,2013-07-14 02:24:00,
2013-07-13 22:29:00,72.8,71.6,30.29,ESE,112,0.0,0.0,96,-99.99,,,-99.99,tws,2013-07-14 02:29:00,
2013-07-13 22:34:00,73.1,71.7,30.29,SSE,157,0.0,0.0,95,-99.99,,,-99.99,tws,2013-07-14 02:34:00,
2013-07-13 22:39:00,73.1,71.7,30.29,SSW,202,0.0,0.0,95,-99.99,,,-99.99,tws,2013-07-14 02:39:00,
2013-07-13 22:44:00,72.5,71.7,30.29,South,180,0.0,0.0,97,-99.99,,,-99.99,tws,2013-07-14 02:44:00,
2013-07-13 22:49:00,72.2,71.5,30.29,SSE,157,1.0,1.0,97,-99.99,,,-99.99,tws,2013-07-14 02:49:00,
2013-07-13 22:54:00,72.1,71.3,30.29,SSW,202,2.5,2.5,97,-99.99,,,-99.99,tws,2013-07-14 02:54:00,
2013-07-13 23:00:00,71.3,70.8,30.29,West,270,0.0,0.0,98,-99.99,,,-99.99,tws,2013-07-14 03:00:00,
2013-07-13 23:05:00,72.1,71.5,30.29,SSE,157,0.0,0.0,98,-99.99,,,-99.99,tws,2013-07-14 03:05:00,
2013-07-13 23:10:00,71.7,71.1,30.29,WSW,247,0.0,0.0,98,-99.99,,,-99.99,tws,2013-07-14 03:10:00,
2013-07-13 23:15:00,71.6,71.3,30.29,West,270,0.0,0.0,99,-99.99,,,-99.99,tws,2013-07-14 03:15:00,
2013-07-13 23:20:00,72.6,72.0,30.29,WSW,247,0.0,0.0,97,-99.99,,,-99.99,tws,2013-07-14 03:20:00,
2013-07-13 23:25:00,72.3,71.6,30.29,South,180,0.0,0.0,97,-99.99,,,-99.99,tws,2013-07-14 03:25:00,
2013-07-13 23:30:00,72.5,71.8,30.29,South,180,0.0,0.0,97,-99.99,,,-99.99,tws,2013-07-14 03:30:00,
2013-07-13 23:35:00,72.4,71.8,30.29,South,180,0.0,0.0,97,-99.99,,,-99.99,tws,2013-07-14 03:35:00,
2013-07-13 23:40:00,71.2,70.9,30.29,NE,45,0.0,0.0,99,-99.99,,,-99.99,tws,2013-07-14 03:40:00,
2013-07-13 23:45:00,71.3,71.2,30.29,North,0,0.0,0.0,99,-99.99,,,-99.99,tws,2013-07-14 03:45:00,
2013-07-13 23:50:00,71.5,71.2,30.30,NNE,22,0.0,0.0,99,-99.99,,,-99.99,tws,2013-07-14 03:50:00,
2013-07-13 23:55:00,72.1,71.8,30.30,East,90,0.0,0.0,99,-99.99,,,-99.99,tws,2013-07-14 03:55:00,